GLOBALSTAR M054 [-]

Last updated on Fri Dec 29 2023 00:02:56 GMT+0000 (Coordinated Universal Time)

1 25885U 99043C 23362.49954047 -.00000068 00000+0 82039-4 0 9991 2 25885 52.0154 71.7022 0003831 331.0954 128.6186 11.39202678 58213

Satellite not in orbit

GLOBALSTAR M054 [-]